Location: Az?znagar
(16.8373°N, 80.5091°E)
Time: 13:14:13
(UTC+00:00)

Hubble Space Telescope - Visible Passes

Search period start: 20 May 2022 00:00
Search period end: 30 May 2022 00:00
Orbit: 533 x 537 km, 28.5° (Epoch: 19 May)

Date Brightness Start Highest point End Pass type
(mag) Time Alt. Az. Time Alt. Az. Time Alt. Az.
20 May 2.5 13:23:28 10° W 13:26:47 24° SSW 13:30:07 10° SSE visible
28 May 3.4 22:10:53 11° SE 22:10:53 11° SE 22:11:29 10° SE visible
29 May 3.3 21:59:45 13° SE 21:59:45 13° SE 22:00:52 10° ESE visible
29 May 0.8 23:35:15 10° WSW 23:39:21 80° SSE 23:43:28 10° ENE visible
